Location: Holmbach
(49.5093°N, 8.8411°E)
Time: 17:16:55
(UTC+00:00)

Cosmos 1892 - Pass Details

Date: 17 June 2025
Orbit: 364 x 371 km, 82.5° (Epoch: 13 July)

Event Time Altitude Azimuth Distance (km) Brightness Sun altitude
Exits shadow 22:47:28 15° 244° (WSW) 1,123 4.2 -16.6°
Maximum altitude 22:49:06 23° 288° (WNW) 867 4.1 -16.6°
Drops below altitude 10° 22:51:35 10° 343° (NNW) 1,396 6.2 -16.7°
Sets 22:53:50 0° 359° (N) 2,249 7.7 -16.7°
